Flag for Greece Weather past 2 weeks in Chania, Crete, Greece

Now
81 °F

Sunny.


Feels Like: 86 °F
Forecast: 72 / 95 °F
Wind: No wind

Location: Souda Airport

Current Time: Jul 29, 2015 at 9:26:39 PM

Latest Report: Jul 29, 2015 at 8:50 PM


Visibility: 10 mi

Pressure: 29.74 "Hg

Humidity: 84%

Dew point: 75 °F

Location of ChaniaLocation

Historic Weather in Chania — Graph

°F

Chania temperature yesterday

Maximum temperature yesterday: 95 °F (at 2:50 PM)
Minimum temperature yesterday: 75 °F (at 2:20 AM)
Average temperature yesterday: 85 °F

Past Weeks' High & Low Weather Summary

 TemperatureHumidityPressure
High100 °F (Jul 29, 3:50 PM)94% (Jul 21, 6:50 AM)29.98 "Hg (Jul 21, 6:50 AM)
Low68 °F (Jul 21, 2:50 AM)24% (Jul 21, 3:50 PM)29.68 "Hg (Jul 28, 4:50 AM)
Average80 °F62%29.83 "Hg
* Reported Jul 14 7:20 PM — Jul 29 7:50 PM, Chania, Weather by CustomWeather, © 2015

Note: Actual official high and low records may vary slightly from our data, if they occured in-between our weather recording intervals... More about our weather records

Advertising

Chania weather history for previous 24 hours

 ConditionsComfort  
Time TempWeatherWind HumidityBarometerVisibility
7:50 PM
Wed, Jul 29
84 °FSunny.5 mph70%29.74 "Hg10 mi
7:20 PM86 °FSunny.5 mph70%29.74 "Hg10 mi
6:50 PM88 °FSunny.5 mph66%29.74 "Hg10 mi
6:20 PM88 °FPassing clouds.6 mph66%29.74 "HgN/A
5:50 PM91 °FPassing clouds.5 mph52%29.74 "HgN/A
5:20 PM90 °FPassing clouds.6 mph59%29.74 "HgN/A
4:50 PM90 °FPassing clouds.9 mph59%29.74 "HgN/A
4:20 PM91 °FPassing clouds.7 mph56%29.74 "HgN/A
3:50 PM100 °FPassing clouds.8 mph37%29.74 "HgN/A
3:20 PM97 °FPassing clouds.5 mph44%29.74 "HgN/A
2:50 PM97 °FPassing clouds.7 mph37%29.74 "HgN/A
2:20 PM99 °FSunny.5 mph37%29.74 "Hg10 mi
1:50 PM97 °FSunny.5 mph42%29.74 "Hg10 mi
1:20 PM97 °FSunny.6 mph42%29.74 "Hg10 mi
12:50 PM95 °FSunny.6 mph44%29.74 "Hg10 mi
12:20 PM93 °FSunny.6 mph47%29.74 "Hg10 mi
11:50 AM93 °FSunny.5 mph44%29.74 "Hg10 mi
11:20 AM93 °FSunny.6 mph47%29.74 "Hg10 mi
10:20 AM91 °FSunny.No wind46%29.74 "Hg10 mi
9:50 AM90 °FSunny.3 mph52%29.74 "Hg10 mi
9:20 AM86 °FSunny.No wind59%29.74 "Hg10 mi
8:50 AM86 °FSunny.No wind59%29.74 "Hg10 mi
8:20 AM81 °FSunny.No wind66%29.74 "Hg10 mi
7:50 AM81 °FSunny.No wind66%29.74 "Hg10 mi
7:20 AM75 °FClear.No wind78%29.74 "Hg10 mi
6:50 AM75 °FClear.No wind78%29.74 "Hg10 mi
5:50 AM75 °FClear.No wind78%29.74 "Hg10 mi
5:20 AM75 °FClear.No wind83%29.74 "Hg10 mi
4:50 AM75 °FClear.No wind83%29.74 "Hg10 mi
4:20 AM77 °FClear.No wind61%29.74 "Hg10 mi
3:50 AM77 °FClear.No wind74%29.74 "Hg10 mi
3:20 AM77 °FClear.No wind74%29.74 "Hg10 mi
2:50 AM77 °FClear.No wind74%29.74 "Hg10 mi
2:20 AM77 °FClear.No wind74%29.74 "Hg10 mi
1:50 AM77 °FClear.No wind74%29.74 "Hg10 mi
12:20 AM79 °FClear.6 mph84%29.77 "Hg10 mi
11:50 PM
Tue, Jul 28
79 °FClear.No wind84%29.77 "Hg10 mi
11:20 PM81 °FClear.No wind79%29.77 "Hg10 mi
10:50 PM81 °FClear.5 mph79%29.77 "Hg10 mi
10:20 PM82 °FClear.6 mph70%29.74 "Hg10 mi
9:50 PM84 °FClear.7 mph74%29.74 "Hg10 mi
9:20 PM84 °FSunny.5 mph74%29.71 "Hg10 mi
Weather by CustomWeather, © 2015

See weather overviewHow to use our weather pages